Location: Ethel Rock
(53.4667°N, 4.5667°W)
Time: 01:02:40
(UTC+00:00)

Meteor 2-1 Rocket - Pass Details

Date: 24 October 2020
Orbit: 830 x 906 km, 81.3° (Epoch: 26 November)

Event Time Altitude Azimuth Distance (km) Brightness Sun altitude
Rises 06:18:57 0° 345° (NNW) 3,411 7.1 -7.1°
Reaches altitude 10° 06:21:21 10° 345° (NNW) 2,481 6.4 -6.8°
Maximum altitude 06:26:59 83° 259° (W) 871 4.3 -6.0°
Drops below altitude 10° 06:32:42 10° 172° (S) 2,513 7.0 -5.1°
Sets 06:35:08 0° 172° (S) 3,458 7.7 -4.8°
